Vorticity
7 6 6 7 10 12 12 10 9 10 10 11 10 9 9 9 10 10 8 8 7 6
6 5 6 9 11 11 10 10 10 9 8 7 8 9 10 9 9 9 9 8 8 7
7 3 3 5 8 10 10 9 8 9 10 11 9 7 6 6 7 7 8 8 7 7
5 2 4 9 11 11 11 10 9 9 10 9 9 10 10 9 8 8 7 6 6 6
4 2 3 4 4 5 6 7 8 9 10 10 10 9 9 8 8 7 8 8 8 7
4 3 5 4 2 2 4 6 9 8 7 7 8 9 8 8 9 9 9 8 8 8
3 0 2 3 3 2 1 -1 3 7 9 9 8 7 7 9 9 9 9 9 8 8
4 1 2 4 3 2 1 -0 -2 5 10 9 9 9 9 9 9 9 10 10 9 8
4 3 1 3 3 1 5 4 4 8 15 13 10 8 8 10 10 10 10 9 9 10
6 3 3 3 3 3 2 0 -2 10 13 13 11 11 13 12 11 10 10 9 9 9
5 4 5 3 3 4 4 3 -0 14 9 9 12 11 12 12 11 11 11 12 13 14
12 8 4 2 1 2 4 6 14 19 6 8 14 12 12 12 11 12 15 17 15 13
10 10 14 20 17 11 9 11 7 5 11 7 13 11 15 13 13 13 13 9 8 7
7 5 7 8 5 6 12 30 14 4 6 14 15 14 15 18 16 13 8 5 3 4
Height
3085 3082 3079 3076 3074 3070 3068 3065 3063 3061 3059 3057 3055 3054 3053 3051 3051 3050 3048 3047 3046 3045
3080 3078 3076 3073 3070 3067 3065 3062 3060 3058 3056 3054 3052 3050 3049 3047 3046 3045 3044 3043 3042 3041
3076 3074 3072 3069 3066 3063 3061 3059 3056 3054 3052 3050 3048 3046 3044 3043 3042 3041 3039 3037 3036 3035
3069 3068 3066 3064 3062 3059 3057 3055 3053 3050 3048 3045 3043 3042 3040 3038 3037 3036 3034 3033 3032 3031
3063 3062 3060 3058 3056 3054 3052 3050 3047 3045 3043 3040 3038 3036 3034 3032 3031 3029 3028 3027 3026 3024
3057 3056 3054 3052 3050 3048 3046 3044 3041 3040 3037 3034 3032 3030 3027 3025 3024 3022 3021 3019 3018 3017
3050 3049 3047 3045 3043 3041 3039 3037 3035 3033 3031 3028 3025 3021 3018 3016 3015 3013 3012 3011 3010 3009
3044 3041 3039 3038 3035 3033 3031 3028 3026 3024 3021 3018 3015 3012 3010 3007 3005 3003 3002 3001 3000 2999
3036 3033 3031 3029 3026 3024 3022 3019 3016 3014 3012 3008 3004 3002 2999 2996 2995 2993 2992 2992 2990 2990
3027 3024 3022 3018 3015 3014 3011 3008 3005 3003 2999 2997 2994 2991 2988 2985 2984 2983 2982 2981 2980 2979
3014 3011 3009 3006 3004 3002 2999 2996 2993 2992 2988 2985 2984 2980 2978 2975 2973 2973 2973 2971 2970 2969
3003 3001 2998 2995 2991 2988 2986 2983 2980 2978 2976 2973 2972 2970 2967 2965 2963 2962 2963 2962 2960 2960
2991 2988 2985 2981 2978 2975 2971 2968 2966 2964 2962 2960 2959 2958 2956 2953 2952 2951 2952 2953 2952 2951
2976 2972 2968 2966 2963 2959 2956 2953 2951 2948 2948 2946 2946 2946 2944 2942 2941 2941 2941 2941 2942 2941